| time (UTC) | temp F | wind direction | speed knots | gust knots | rain 1hr in | rain 24hr in | rain mn in | humidity % | barometer mb |
| 20260503193053 | 73 | 274 | 6.1 | 10.4 | 0.00 | 0.00 | 0.00 | 56 | 1012.9 |
| 20260503191543 | 73 | 242 | 5.2 | 9.6 | 0.00 | 0.00 | 0.00 | 56 | 1013.0 |
| 20260503190049 | 74 | 179 | 1.7 | 7.8 | 0.00 | 0.00 | 0.00 | 56 | 1013.1 |
| 20260503184602 | 74 | 249 | 2.6 | 7.0 | 0.00 | 0.00 | 0.00 | 56 | 1013.3 |
| 20260503183048 | 72 | 22 | 1.7 | 7.0 | 0.00 | 0.00 | 0.00 | 55 | 1013.3 |
| 20260503181548 | 70 | 222 | 2.6 | 6.1 | 0.00 | 0.00 | 0.00 | 58 | 1013.4 |
| 20260503180047 | 68 | 236 | 3.5 | 7.8 | 0.00 | 0.00 | 0.00 | 63 | 1013.6 |
| 20260503174601 | 68 | 236 | 3.5 | 8.7 | 0.00 | 0.00 | 0.00 | 65 | 1013.6 |
| 20260503173046 | 68 | 249 | 3.5 | 7.8 | 0.00 | 0.00 | 0.00 | 63 | 1013.7 |
| 20260503171541 | 68 | 215 | 2.6 | 7.8 | 0.00 | 0.00 | 0.00 | 60 | 1013.7 |
| 20260503081547 | 58 | 42 | 1.7 | 5.2 | 0.00 | 0.00 | 0.00 | 81 | 1014.6 |
| 20260503071547 | 59 | 91 | 0.9 | 5.2 | 0.00 | 0.00 | 0.00 | 81 | 1014.6 |
| 20260503054546 | 62 | 0 | 0.9 | 4.3 | 0.00 | 0.00 | 0.00 | 77 | 1014.3 |
| 20260503053043 | 62 | 130 | 0.9 | 2.6 | 0.00 | 0.00 | 0.00 | 76 | 1014.3 |
| 20260503051549 | 62 | 109 | 0.9 | 1.7 | 0.00 | 0.00 | 0.00 | 74 | 1014.3 |
| 20260503050049 | 63 | 80 | 0.9 | 3.5 | 0.00 | 0.00 | 0.00 | 72 | 1014.3 |
| 20260503044552 | 65 | 186 | 0.9 | 1.7 | 0.00 | 0.00 | 0.00 | 67 | 1014.1 |
| 20260503043047 | 66 | 256 | 0.9 | 1.7 | 0.00 | 0.00 | 0.00 | 64 | 1014.1 |
| 20260503041538 | 67 | 247 | 1.7 | 2.6 | 0.00 | 0.00 | 0.00 | 63 | 1014.0 |
| 20260503040043 | 68 | 208 | 1.7 | 3.5 | 0.00 | 0.00 | 0.00 | 61 | 1013.7 |
| 20260503034558 | 69 | 256 | 0.9 | 2.6 | 0.00 | 0.00 | 0.00 | 60 | 1013.4 |
| 20260503033051 | 70 | 220 | 0.9 | 2.6 | 0.00 | 0.00 | 0.00 | 59 | 1013.0 |
| 20260503031552 | 71 | 215 | 0.9 | 2.6 | 0.00 | 0.00 | 0.00 | 56 | 1012.9 |
| 20260503030046 | 72 | 201 | 0.9 | 2.6 | 0.00 | 0.00 | 0.00 | 55 | 1012.8 |
| 20260503024550 | 72 | 219 | 0.9 | 5.2 | 0.00 | 0.00 | 0.00 | 55 | 1012.8 |
| 20260503023041 | 72 | 210 | 3.5 | 7.0 | 0.00 | 0.00 | 0.00 | 54 | 1012.7 |
| 20260503021548 | 73 | 201 | 3.5 | 7.0 | 0.00 | 0.00 | 0.00 | 53 | 1012.8 |
| 20260503020048 | 73 | 230 | 5.2 | 9.6 | 0.00 | 0.00 | 0.00 | 53 | 1012.7 |
| 20260503014600 | 73 | 254 | 5.2 | 8.7 | 0.00 | 0.00 | 0.00 | 53 | 1012.6 |
| 20260503013045 | 74 | 215 | 6.1 | 9.6 | 0.00 | 0.00 | 0.00 | 54 | 1012.5 |
| 20260503011548 | 74 | 244 | 4.3 | 9.6 | 0.00 | 0.00 | 0.00 | 54 | 1012.5 |
| 20260503010051 | 75 | 193 | 2.6 | 7.8 | 0.00 | 0.00 | 0.00 | 53 | 1012.7 |
| 20260503004548 | 75 | 235 | 3.5 | 7.8 | 0.00 | 0.00 | 0.00 | 54 | 1012.8 |
| 20260503003053 | 74 | 236 | 5.2 | 10.4 | 0.00 | 0.00 | 0.00 | 57 | 1013.0 |
| 20260503001606 | 75 | 244 | 4.3 | 9.6 | 0.00 | 0.00 | 0.00 | 55 | 1013.1 |
| 20260503000049 | 73 | 186 | 6.1 | 10.4 | 0.00 | 0.00 | 0.00 | 56 | 1013.1 |
| 20260502234549 | 73 | 193 | 6.1 | 10.4 | 0.00 | 0.00 | 0.00 | 57 | 1013.1 |
| 20260502233042 | 73 | 262 | 6.1 | 12.2 | 0.00 | 0.00 | 0.00 | 57 | 1013.3 |
| 20260502231548 | 72 | 194 | 2.6 | 8.7 | 0.00 | 0.00 | 0.00 | 60 | 1013.4 |
| 20260502230050 | 70 | 176 | 3.5 | 7.0 | 0.00 | 0.00 | 0.00 | 62 | 1013.7 |
| 20260502224547 | 70 | 188 | 2.6 | 6.1 | 0.00 | 0.00 | 0.00 | 63 | 1013.9 |
| 20260502223047 | 69 | 172 | 3.5 | 9.6 | 0.00 | 0.00 | 0.00 | 62 | 1014.1 |
| 20260502221546 | 70 | 197 | 3.5 | 7.8 | 0.00 | 0.00 | 0.00 | 60 | 1014.3 |
| 20260502220042 | 70 | 269 | 0.9 | 9.6 | 0.00 | 0.00 | 0.00 | 60 | 1014.5 |
| 20260502214549 | 70 | 215 | 2.6 | 9.6 | 0.00 | 0.00 | 0.00 | 61 | 1014.6 |
| 20260502213042 | 69 | 180 | 4.3 | 10.4 | 0.00 | 0.00 | 0.00 | 63 | 1014.8 |
| 20260502211546 | 69 | 203 | 4.3 | 10.4 | 0.00 | 0.00 | 0.00 | 63 | 1014.9 |
| 20260502210047 | 68 | 161 | 5.2 | 9.6 | 0.00 | 0.00 | 0.00 | 63 | 1014.9 |
| 20260502204545 | 69 | 208 | 2.6 | 7.8 | 0.00 | 0.00 | 0.00 | 62 | 1015.1 |
| 20260502203042 | 68 | 254 | 2.6 | 7.8 | 0.00 | 0.00 | 0.00 | 64 | 1015.1 |
| 20260502201541 | 66 | 166 | 3.5 | 8.7 | 0.00 | 0.00 | 0.00 | 65 | 1015.2 |
| 20260502200050 | 66 | 230 | 5.2 | 9.6 | 0.00 | 0.00 | 0.00 | 65 | 1015.5 |
| 20260502194547 | 66 | 266 | 3.5 | 6.1 | 0.00 | 0.00 | 0.00 | 64 | 1015.5 |